sat.trackr.live / text

‹ back to catalog

TRANSPORTER-15 OBJECT F

NORAD 66671 · 2025-276F

PAYLOAD ACTIVE UNKNOWN

§ Identity

Operator
Country
TBD
Launch date
2025-11-28
Launch site
AFWTR
Launch vehicle
Mass (kg)
RCS (m²)

External: N2YO · Heavens-Above · Gunter

§ Orbital elements

Epoch: 2026-05-25T03:56:32.070048Z

Period
94.67 min
Inclination
97.4213°
Eccentricity
0.0007237
Mean motion
15.21038368 rev/d
Perigee alt
497.7 km
Apogee alt
507.7 km
Semi-major
6,880.8 km
B*
4.9950e-4
RAAN
219.2598°
Arg perigee
86.3759°
Mean anomaly
273.8304°
Rev number
2,693

§ Raw data

TRANSPORTER-15 OBJECT F1 66671U 25276F   26145.16426007  .00011035  00000+0  49950-3 0  99912 66671  97.4213 219.2598 0007237  86.3759 273.8304 15.21038368 26931

JSON: /api/v1/satellites/66671 · /tle

For live sub-satellite position, see the globe view (requires WebGL).

§ Visibility from observer

Set your observer location to see the next 7 days of passes ≥ 10°. The values pass through the URL so the page stays shareable.

No JS? Fill the form by hand. The geolocation button needs JavaScript.